Probability
5 5 5 5 4 2 1 0 0 0 0 0 0 0 0 0 0 0 0 0 0 0 0 0 0 0 0 0 0 0 0 0 0 0 0 0 1 2 2 1 1 0 0
4 4 3 3 2 1 1 1 0 0 0 0 0 0 0 0 0 0 0 0 0 0 0 0 0 0 0 0 0 0 0 0 0 0 0 0 1 3 3 2 1 1 0
3 2 1 1 0 0 1 1 0 0 0 0 0 0 0 0 0 0 0 0 0 0 0 0 0 0 0 0 0 0 0 0 0 0 0 0 0 2 3 2 1 1 1
2 1 0 0 0 0 1 1 1 1 0 0 0 0 0 0 0 0 0 0 0 0 0 0 0 0 0 0 0 0 0 0 0 0 0 0 0 1 2 1 1 1 1
1 0 0 0 0 0 0 0 1 1 1 0 0 0 0 0 0 0 0 0 0 0 0 0 0 0 0 0 0 0 0 0 0 0 0 0 0 0 1 1 1 2 2
0 0 0 0 0 0 0 0 1 2 2 2 2 1 0 0 0 0 0 0 0 0 0 0 0 0 0 0 0 0 0 0 0 0 0 0 0 0 0 0 1 2 3
0 0 0 0 0 0 1 2 4 6 7 7 5 3 2 0 0 0 0 0 0 0 0 0 0 0 0 0 0 0 0 0 0 0 0 0 0 0 0 0 0 1 2
0 1 1 1 1 1 2 6 11 14 13 10 7 5 4 2 0 0 0 0 0 0 0 0 0 0 0 0 0 0 0 0 0 0 0 0 0 0 0 0 0 0 1
2 3 3 3 3 3 6 11 19 22 18 11 5 4 6 4 1 0 0 0 0 0 0 0 0 0 0 0 0 0 0 0 0 0 0 0 0 0 0 0 0 0 0
5 6 7 7 8 8 12 20 26 26 19 10 5 4 6 5 2 0 0 0 0 0 0 0 0 0 0 0 0 0 0 0 0 0 0 0 0 0 0 0 0 0 0
10 10 11 12 11 11 19 30 35 30 21 12 8 6 7 6 3 0 0 0 0 0 0 0 0 0 0 0 0 0 0 0 0 0 0 0 0 0 0 0 0 0 0
17 16 17 18 15 15 23 33 38 33 22 13 8 6 7 8 4 1 0 0 0 0 0 0 0 0 0 0 0 0 0 0 0 0 0 0 0 0 0 0 1 2 2
26 26 25 24 23 22 24 25 27 27 18 11 7 5 6 8 7 3 1 0 0 0 0 0 0 0 0 0 0 0 0 0 0 0 0 0 0 0 0 0 1 2 3
34 33 30 26 26 29 28 21 20 21 18 13 9 6 6 6 5 4 2 0 0 0 0 0 0 0 0 0 0 0 0 0 0 0 0 0 0 0 0 0 0 1 1
34 32 25 18 19 26 28 21 17 18 17 14 9 6 4 2 2 1 1 0 0 0 0 0 0 0 0 0 0 0 0 0 0 0 0 0 0 0 0 0 0 0 0
28 24 16 9 9 15 20 16 12 9 7 6 4 2 1 0 0 0 0 0 0 0 0 0 0 0 0 0 0 0 0 0 0 0 0 0 0 0 0 0 1 0 0
22 17 11 7 6 7 10 10 7 4 3 2 1 0 0 0 0 0 0 0 0 0 0 0 0 0 0 0 0 0 0 0 0 0 0 0 0 0 0 0 0 0 0
18 14 12 12 9 7 7 8 7 7 8 8 4 1 0 0 0 0 0 0 0 0 0 0 0 0 0 0 0 0 0 0 0 0 0 0 0 0 0 0 0 0 0
18 15 13 14 12 8 6 6 6 8 11 11 8 4 1 0 0 0 0 0 0 0 0 0 0 0 0 0 0 0 0 0 0 0 0 0 0 0 0 0 0 0 0
20 14 9 9 8 5 5 5 5 7 9 10 8 4 1 0 0 0 0 0 0 0 0 0 0 0 0 0 0 0 0 0 0 0 0 0 0 0 0 0 0 0 0
13 9 4 3 4 3 3 4 4 4 7 8 6 4 1 0 0 0 0 0 0 0 0 0 0 0 0 0 0 0 0 0 0 0 0 0 0 0 0 0 0 0 0
5 3 1 1 3 3 2 2 2 2 3 5 5 3 2 0 0 0 0 0 0 0 0 0 0 0 0 0 0 0 0 0 0 0 0 0 0 0 0 0 0 0 0
1 0 0 0 1 1 1 1 1 1 1 2 3 4 3 1 0 0 0 0 0 0 0 0 0 0 0 0 0 0 0 0 0 0 0 0 0 0 0 0 0 0 0
0 0 0 0 0 0 1 1 1 1 0 0 1 3 2 1 1 0 0 0 0 0 0 0 0 0 0 0 0 0 0 0 0 0 0 0 0 0 0 0 0 0 0
0 0 0 0 0 0 0 1 1 0 0 0 0 1 1 0 0 0 0 0 0 0 0 0 0 0 0 0 0 0 0 0 0 0 0 0 0 0 0 0 0 0 0
0 0 0 0 0 0 0 0 0 0 0 0 0 0 0 0 0 0 0 0 0 0 0 0 0 0 0 0 0 0 0 0 0 0 0 0 0 0 0 0 0 0 0
Wind_Speed
4 3 1 1 2 2 3 4 4 3 4 4 5 5 5 6 6 5 6 6 7 6 6 7 6 6 5 5 4 4 4 4 6 6 5 4 3 3 2 3 4 4 5
5 3 3 3 3 3 4 3 3 4 4 5 5 5 6 7 6 6 6 7 6 6 7 7 7 7 6 5 5 6 5 5 6 7 6 5 6 5 4 4 4 5 4
5 4 4 4 3 3 4 4 4 4 4 5 5 6 6 6 6 6 6 6 6 6 6 7 7 7 7 6 6 6 5 7 5 5 6 5 5 4 4 5 5 4 4
3 3 3 3 3 3 3 4 4 4 5 5 6 6 6 6 7 6 6 6 6 6 6 7 7 7 7 7 6 6 6 6 6 5 5 5 5 5 4 4 4 4 4
2 3 3 3 3 3 4 4 4 5 6 5 5 6 6 7 6 4 4 7 6 6 7 7 8 9 10 8 8 6 5 4 5 5 5 5 5 4 3 3 4 3 4
4 4 3 3 3 4 4 5 5 5 5 5 5 6 7 8 3 2 3 6 7 7 8 8 9 10 12 13 14 13 10 8 7 6 6 6 6 5 4 4 3 3 3
5 5 4 4 4 4 5 5 4 5 5 5 6 6 6 6 6 6 7 5 7 8 9 8 10 11 9 6 8 12 13 16 14 9 9 9 8 6 5 5 5 4 4
6 6 5 5 5 4 4 5 5 4 5 5 6 7 6 7 6 8 8 7 8 9 10 10 9 9 10 8 7 7 7 8 10 11 10 11 10 8 7 6 6 5 4
7 6 5 4 4 4 4 5 5 4 5 6 7 7 7 6 7 8 9 6 7 9 10 10 9 8 9 9 7 8 8 8 11 14 14 14 15 13 8 4 4 4 4
6 5 4 4 4 5 5 5 5 5 6 7 7 6 7 7 7 9 10 6 7 8 7 8 10 9 8 7 7 7 8 8 8 9 8 9 10 12 13 9 7 6 4
5 4 4 4 5 6 6 6 5 6 7 7 8 8 8 9 8 11 13 7 7 7 7 7 4 4 6 7 7 7 9 8 7 8 8 7 7 7 8 9 9 8 7
4 4 5 4 6 6 5 5 6 6 8 8 8 9 7 6 7 9 13 14 10 7 8 7 4 3 5 7 7 10 10 8 7 8 8 8 7 7 7 8 9 9 8
4 5 4 5 5 6 6 7 7 7 8 7 6 6 4 3 3 8 11 13 13 9 8 10 10 11 10 9 14 15 11 8 8 9 9 8 7 7 6 6 7 7 7
5 5 5 6 7 7 7 8 8 7 6 5 5 5 5 4 3 1 2 5 9 10 9 10 12 15 13 12 11 9 8 9 9 9 8 7 6 5 5 5 5 5 5
5 5 6 8 8 8 8 8 9 8 7 7 6 5 5 6 3 2 3 5 5 4 5 7 8 8 7 7 7 7 7 7 9 9 8 7 6 5 5 5 5 5 6
5 6 7 7 7 7 7 7 12 13 13 14 14 11 8 8 8 7 8 8 7 5 4 8 9 8 8 7 6 6 6 7 7 7 7 7 6 6 5 5 5 6 7
6 7 6 7 8 8 7 6 6 7 12 14 15 15 15 13 12 11 10 9 9 6 6 9 9 9 8 7 6 6 6 6 6 6 7 7 6 6 6 6 5 6 6
7 8 8 8 8 8 8 8 7 7 6 6 9 15 16 16 16 15 10 5 7 7 8 9 8 8 7 7 6 6 6 5 5 6 6 6 6 6 6 6 6 7 6
8 8 8 9 8 9 8 8 8 8 6 6 5 5 11 13 14 13 7 6 9 9 8 7 7 7 7 6 6 5 5 5 5 5 5 6 6 5 6 6 6 8 7
8 12 12 10 10 9 9 9 8 7 6 5 5 5 3 4 5 6 7 8 8 8 8 7 6 6 6 6 5 5 5 5 5 5 5 5 5 5 6 7 6 6 6
10 11 12 11 10 10 9 9 8 7 6 5 5 4 3 4 6 6 5 5 6 7 6 6 5 5 5 5 4 5 6 5 5 4 4 4 5 5 5 5 5 5 5
10 11 11 11 9 8 8 7 7 7 7 7 5 4 5 5 5 6 5 4 4 4 5 5 5 4 4 4 4 4 4 4 4 4 4 4 4 5 5 5 5 5 6
11 12 12 11 9 9 9 8 8 8 7 5 4 4 3 3 4 5 5 4 4 4 4 3 4 4 3 3 3 3 3 3 3 3 4 4 4 4 5 5 6 6 6
13 14 13 12 10 9 9 8 7 6 5 4 4 4 4 4 4 4 4 3 3 4 3 3 3 4 5 3 2 2 2 3 3 3 3 3 3 3 4 4 5 6 6
13 13 13 12 10 9 9 8 7 5 4 4 3 4 4 3 3 2 2 3 4 4 4 3 2 3 5 4 2 2 3 3 3 4 4 3 4 4 4 5 4 4 5
13 12 12 11 10 8 8 8 7 5 3 3 3 3 3 3 3 2 2 2 3 3 3 3 4 4 4 3 4 3 2 3 3 4 4 4 4 3 4 4 5 5 6
Wind_Direction
206 200 238 256 270 276 268 269 275 281 291 289 285 286 287 285 279 273 271 271 272 273 275 272 267 262 262 272 278 275 268 268 275 280 284 285 271 269 243 234 238 235 234
193 185 200 223 245 261 273 279 284 281 278 281 283 287 287 287 287 282 281 283 279 278 275 275 275 273 265 257 260 268 270 267 262 268 275 277 264 252 239 236 251 254 239
185 183 199 214 233 247 264 272 277 279 279 282 284 285 286 287 286 282 278 278 278 278 278 276 274 272 271 264 259 261 266 272 268 266 272 274 271 259 251 241 239 250 254
186 197 208 218 237 253 263 268 271 275 276 274 275 278 282 283 281 279 279 279 278 278 278 276 274 268 266 267 265 257 259 263 270 270 268 268 266 257 244 239 241 229 237
196 226 229 227 236 247 255 260 265 269 277 281 287 287 284 280 280 292 290 290 296 296 290 282 276 275 269 261 264 262 270 272 273 273 271 272 269 269 261 250 248 237 231
199 231 237 234 247 252 256 255 259 263 271 277 280 284 284 288 304 290 282 297 294 289 287 283 282 274 264 249 246 248 249 254 260 266 271 269 272 281 286 281 272 255 251
197 221 233 233 245 253 266 274 276 279 281 280 279 279 279 281 266 246 242 267 280 279 279 278 281 281 293 282 260 250 248 247 242 247 260 266 273 277 285 285 280 269 258
203 216 224 230 244 251 257 264 267 273 276 277 277 278 277 278 263 243 237 251 269 270 268 267 267 271 277 280 283 276 264 255 242 236 240 248 255 260 264 264 268 271 261
210 213 222 230 244 254 261 264 268 270 272 273 275 272 271 271 253 237 227 259 267 271 269 269 267 266 263 257 259 267 270 269 266 255 239 238 240 244 244 255 259 253 253
215 214 220 225 239 252 259 261 265 266 269 273 274 273 274 274 257 232 217 250 269 276 278 272 267 264 261 246 250 261 267 270 277 285 272 256 247 241 232 229 238 241 244
212 212 218 224 233 242 245 245 250 258 267 271 274 272 267 261 250 229 217 235 259 276 286 290 293 293 258 246 247 256 262 275 282 277 274 263 250 241 233 223 219 223 227
210 220 227 229 247 258 250 251 251 256 264 265 264 265 261 250 238 229 218 222 241 262 274 281 289 293 271 257 251 254 260 267 266 264 261 256 247 240 234 227 217 215 218
218 228 237 243 245 253 258 260 256 251 255 261 268 275 278 270 240 230 222 226 233 243 264 278 287 278 268 257 248 248 250 247 248 252 252 251 247 242 240 230 225 220 215
224 233 241 246 247 245 242 251 257 259 260 263 272 281 290 288 279 228 219 234 238 243 257 274 273 263 255 255 261 245 231 235 239 247 250 250 247 243 239 227 221 209 204
230 239 248 253 253 250 245 243 247 249 251 254 263 269 278 281 276 207 265 286 296 318 314 287 280 274 262 248 242 240 236 229 231 239 246 248 244 240 236 224 217 206 201
242 247 254 258 258 258 255 254 241 237 242 232 232 241 256 257 259 251 253 258 263 269 275 271 273 273 271 269 262 255 243 236 235 234 237 240 239 237 234 224 212 206 203
254 262 268 271 273 274 272 270 272 255 239 236 235 237 239 251 259 261 263 269 267 237 243 259 263 265 268 267 263 260 254 244 233 230 233 236 234 230 227 222 210 206 205
262 266 267 269 267 268 270 270 269 271 267 255 236 231 235 240 248 254 258 268 267 233 239 253 259 263 266 267 265 262 258 253 238 228 230 232 230 224 221 219 211 206 201
280 277 273 273 273 273 271 270 268 267 265 268 272 239 224 232 242 249 235 238 258 267 265 259 258 263 266 266 262 258 255 249 241 230 230 229 225 223 221 218 211 207 200
278 273 274 277 276 273 270 270 271 269 268 268 270 275 239 225 245 242 219 230 244 257 266 273 273 269 268 267 264 255 254 250 242 234 231 230 225 224 224 219 211 200 199
297 291 279 271 269 269 266 266 269 269 268 266 266 261 246 264 273 274 264 243 246 257 265 271 272 274 273 268 264 258 254 248 241 234 231 228 227 225 220 217 210 200 198
305 299 295 291 283 276 271 268 268 269 272 276 280 262 217 241 269 282 285 283 280 271 272 277 281 276 273 277 275 270 267 263 248 235 232 228 222 223 218 212 206 198 197
306 301 297 293 289 288 282 274 268 266 266 265 267 277 255 250 266 270 277 284 284 283 284 283 282 285 289 282 280 281 285 286 282 257 230 225 223 220 215 212 209 203 196
309 302 299 295 290 288 289 284 273 266 265 264 268 268 266 255 261 274 283 287 292 294 291 291 290 295 300 301 303 327 341 333 317 305 285 253 237 225 208 209 209 206 199
307 305 302 299 294 292 291 287 284 280 267 259 267 267 268 272 272 281 298 303 312 314 321 328 317 315 314 325 348 23 21 9 358 330 305 285 266 247 222 214 208 203 197
306 306 306 303 302 301 296 290 286 287 280 281 282 277 283 295 307 325 323 320 322 321 322 330 334 334 339 359 30 36 22 356 346 328 305 282 267 254 237 223 211 204 199